Terug naar catalogus

COSMOS 2251 DEB

ActiefLEO
NORAD 33892·DEBRIS·🇷🇺 Russia

Gelanceerd Jun 16, 1993 vanaf Plesetsk Cosmodrome

Loading…

Volgende Passages (komende 24 uur)

TLE

VersSource: Space-Track

Epoch: Sep 14, 2026, 04:19 UTC

1 33892U 93036CV  26257.18001529  .00000767  00000-0  32297-3 0  9990
2 33892  73.8029 319.2009 0115382 301.1937  88.4526 14.24069593908759

Volg COSMOS 2251 DEB in realtime met AllMySat

Download on the App Store